Inquirer Daily News

Weather

Get conditions and forecasts for any City, State, ZIP code or Country:  
Trenton, NJ
on Saturday, December 22, 2012

Saturday
Previous Day Next Day
Daily Summary
 ActualAverageRecord
Temperature
Mean Temperature °F 33°F  
Max Temperature 42°F 41°F 68°F (2013)
Min Temperature 34°F 26°F 5°F (1989)
Degree Days
Heating Degree Days 27 32  
Month to date heating degree days 471 625  
Since 1 July heating degree days 1478 1601  
Cooling Degree Days 0 0  
Month to date cooling degree days 0 0  
Year to date cooling degree days 1234 965  
Moisture
Dew Point 24°F   
Average Humidity 56    
Maximum Humidity 70    
Minimum Humidity 41    
Precipitation
Precipitation T in 0.12 in 1.80 in (1983)
Month to date precipitation 2.72 2.86  
Year to date precipitation 35.95 45.60  
Wind
Wind Speed 14 mph   
Max Wind Speed 28 mph   
Max Gust Speed 40 mph   
Visibility 10 miles   
Events Snow   

Key: T is trace of precipitation, MM is missing value
Source: NWS Daily Summary
Time(EST)TemperatureDew PointHumidity Pressure Visibility Wind DirectionWind SpeedGust SpeedPrecipitationEvents Conditions
12:22 AM 35.6°F 28.4°F 75% 29.39 in 10.0 miles West 10.4 mph 20.7 mph N/A   Overcast
12:53 AM 34.0°F 30.9°F 89% 29.38 in 7.0 miles West 10.4 mph - 0.00 in Snow Light Snow
1:09 AM 33.8°F 30.2°F 87% 29.39 in 10.0 miles West 12.7 mph 21.9 mph 0.00 in   Overcast
1:36 AM 33.8°F 30.2°F 87% 29.40 in 8.0 miles West 10.4 mph - 0.00 in   Overcast
1:53 AM 34.0°F 30.0°F 85% 29.39 in 6.0 miles West 12.7 mph - 0.00 in Snow Light Snow
2:10 AM 33.8°F 30.2°F 87% 29.41 in 9.0 miles West 10.4 mph 17.3 mph 0.00 in   Overcast
2:49 AM 35.6°F 28.4°F 75% 29.42 in 9.0 miles West 15.0 mph 24.2 mph 0.00 in Snow Light Snow
2:53 AM 35.1°F 28.9°F 78% 29.41 in 8.0 miles WNW 12.7 mph 21.9 mph 0.00 in Snow Light Snow
3:53 AM 35.1°F 28.0°F 76% 29.42 in 10.0 miles WNW 10.4 mph 21.9 mph 0.00 in   Overcast
4:53 AM 37.0°F 26.1°F 65% 29.45 in 10.0 miles WNW 13.8 mph 23.0 mph N/A   Overcast
5:53 AM 36.0°F 26.1°F 67% 29.48 in 10.0 miles NW 17.3 mph 23.0 mph N/A   Mostly Cloudy
6:53 AM 36.0°F 24.1°F 62% 29.51 in 10.0 miles WNW 13.8 mph 20.7 mph N/A   Clear
7:53 AM 37.0°F 19.9°F 50% 29.55 in 10.0 miles WNW 13.8 mph 25.3 mph N/A   Partly Cloudy
8:53 AM 37.9°F 19.9°F 48% 29.57 in 10.0 miles NNW 21.9 mph 27.6 mph N/A   Mostly Cloudy
9:53 AM 37.9°F 19.9°F 48% 29.62 in 10.0 miles NW 17.3 mph 32.2 mph N/A   Overcast
10:53 AM 39.0°F 23.0°F 53% 29.62 in 10.0 miles NW 13.8 mph 26.5 mph N/A   Overcast
11:53 AM 39.0°F 21.9°F 50% 29.62 in 10.0 miles NNW 24.2 mph 32.2 mph N/A   Overcast
12:53 PM 39.9°F 21.9°F 49% 29.63 in 10.0 miles NW 20.7 mph 36.8 mph N/A   Overcast
1:53 PM 41.0°F 19.9°F 43% 29.65 in 10.0 miles NW 18.4 mph 38.0 mph N/A   Overcast
2:53 PM 41.0°F 21.0°F 45% 29.68 in 10.0 miles NW 11.5 mph 28.8 mph N/A   Mostly Cloudy
3:53 PM 39.9°F 21.0°F 47% 29.70 in 10.0 miles NW 12.7 mph 24.2 mph N/A   Mostly Cloudy
4:53 PM 37.9°F 19.9°F 48% 29.74 in 10.0 miles NW 15.0 mph 34.5 mph N/A   Partly Cloudy
5:53 PM 37.9°F 19.0°F 47% 29.78 in 10.0 miles NW 17.3 mph 28.8 mph N/A   Scattered Clouds
6:53 PM 37.0°F 19.9°F 50% 29.81 in 10.0 miles NW 10.4 mph 20.7 mph N/A   Partly Cloudy
7:53 PM 36.0°F 21.0°F 55% 29.82 in 10.0 miles NW 13.8 mph 20.7 mph N/A   Clear
8:53 PM 36.0°F 21.0°F 55% 29.83 in 10.0 miles NW 11.5 mph 21.9 mph N/A   Clear
9:53 PM 36.0°F 21.0°F 55% 29.84 in 10.0 miles NW 17.3 mph 24.2 mph N/A   Mostly Cloudy
10:53 PM 36.0°F 21.0°F 55% 29.86 in 10.0 miles Variable 6.9 mph - N/A   Overcast
11:53 PM 36.0°F 21.9°F 57% 29.87 in 10.0 miles NW 9.2 mph 19.6 mph N/A   Overcast
Astronomy
Sunrise:07:19 AM (EST) Moon Rise:12:53 PM (EST)
Sunset:04:37 PM (EST) Moon Set:02:01 AM (EST)
Moon Phase
Dec. 22 Dec. 28 Jan. 04 Jan. 11 Jan. 18

Copyright © 2014 The Weather Underground, Inc.